Time,TemperatureF,DewpointF,PressureIn,WindDirection,WindDirectionDegrees,WindSpeedMPH,WindSpeedGustMPH,Humidity,HourlyPrecipIn,Conditions,Clouds,dailyrainin,SoftwareType,DateUTC
2013-01-08 00:00:00,32.2,21.0,30.21,WSW,248,2.5,2.5,63,0.00,,---,0.00,VWS V14.01,2013-01-08 05:00:00,
2013-01-08 00:01:00,32.2,21.0,30.21,WSW,248,2.5,2.5,63,0.00,,---,0.00,VWS V14.01,2013-01-08 05:01:00,
2013-01-08 00:03:00,32.2,21.0,30.21,WSW,248,2.5,2.5,63,0.00,,---,0.00,VWS V14.01,2013-01-08 05:03:00,
2013-01-08 00:08:00,32.0,21.2,30.21,WSW,248,2.7,2.7,64,0.00,,---,0.00,VWS V14.01,2013-01-08 05:08:00,
2013-01-08 00:13:00,32.0,21.2,30.21,WSW,248,2.0,2.0,64,0.00,,---,0.00,VWS V14.01,2013-01-08 05:13:00,
2013-01-08 00:18:00,32.0,21.2,30.21,WSW,248,2.7,3.8,64,0.00,,---,0.00,VWS V14.01,2013-01-08 05:18:00,
2013-01-08 00:23:00,32.0,21.2,30.21,WSW,248,2.5,2.5,64,0.00,,---,0.00,VWS V14.01,2013-01-08 05:23:00,
2013-01-08 00:28:00,32.2,21.4,30.21,WSW,248,3.1,3.1,64,0.00,,---,0.00,VWS V14.01,2013-01-08 05:28:00,
2013-01-08 00:33:00,32.2,21.8,30.21,WSW,248,2.5,2.5,65,0.00,,---,0.00,VWS V14.01,2013-01-08 05:33:00,
2013-01-08 00:38:00,32.2,21.8,30.21,WSW,248,2.7,2.7,65,0.00,,---,0.00,VWS V14.01,2013-01-08 05:38:00,
2013-01-08 00:43:00,32.2,21.8,30.21,WSW,248,2.9,2.9,65,0.00,,---,0.00,VWS V14.01,2013-01-08 05:43:00,
2013-01-08 00:48:00,32.4,21.9,30.21,WSW,248,3.1,3.4,65,0.00,,---,0.00,VWS V14.01,2013-01-08 05:48:00,
2013-01-08 00:53:00,32.2,21.8,30.21,WSW,248,2.7,2.7,65,0.00,,---,0.00,VWS V14.01,2013-01-08 05:53:00,
2013-01-08 00:58:00,32.2,21.8,30.21,WSW,248,2.0,3.4,65,0.00,,---,0.00,VWS V14.01,2013-01-08 05:58:00,
2013-01-08 01:03:00,32.2,21.8,30.21,WSW,248,2.7,2.7,65,0.00,,---,0.00,VWS V14.01,2013-01-08 06:03:00,
2013-01-08 01:08:00,32.2,21.8,30.21,WSW,248,2.7,2.7,65,0.00,,---,0.00,VWS V14.01,2013-01-08 06:08:00,
2013-01-08 01:13:00,32.2,21.8,30.21,WSW,248,3.6,3.6,65,0.00,,---,0.00,VWS V14.01,2013-01-08 06:13:00,
2013-01-08 01:18:00,32.0,21.6,30.21,WSW,248,2.0,2.0,65,0.00,,---,0.00,VWS V14.01,2013-01-08 06:18:00,
2013-01-08 01:23:00,31.8,21.4,30.21,WSW,248,3.8,3.8,65,0.00,,---,0.00,VWS V14.01,2013-01-08 06:23:00,
2013-01-08 01:28:00,31.8,21.4,30.21,WSW,248,2.9,2.9,65,0.00,,---,0.00,VWS V14.01,2013-01-08 06:28:00,
2013-01-08 01:33:00,31.6,21.2,30.21,WSW,248,2.7,2.7,65,0.00,,---,0.00,VWS V14.01,2013-01-08 06:33:00,
2013-01-08 01:38:00,31.6,21.2,30.21,WSW,248,2.2,2.2,65,0.00,,---,0.00,VWS V14.01,2013-01-08 06:38:00,
2013-01-08 01:43:00,31.6,21.6,30.21,WSW,248,2.9,2.9,66,0.00,,---,0.00,VWS V14.01,2013-01-08 06:43:00,
2013-01-08 01:48:00,31.6,21.6,30.21,WSW,248,2.5,2.5,66,0.00,,---,0.00,VWS V14.01,2013-01-08 06:48:00,
2013-01-08 01:53:00,31.5,21.4,30.21,WSW,248,2.2,2.2,66,0.00,,---,0.00,VWS V14.01,2013-01-08 06:53:00,
2013-01-08 01:58:00,31.5,21.4,30.21,West,270,2.2,2.5,66,0.00,,---,0.00,VWS V14.01,2013-01-08 06:58:00,
2013-01-08 02:03:00,31.3,21.3,30.21,WSW,248,1.6,1.6,66,0.00,,---,0.00,VWS V14.01,2013-01-08 07:03:00,
2013-01-08 02:08:00,31.1,21.1,30.21,WSW,248,1.6,1.6,66,0.00,,---,0.00,VWS V14.01,2013-01-08 07:08:00,
2013-01-08 02:13:00,31.1,21.1,30.21,West,270,1.6,1.6,66,0.00,,---,0.00,VWS V14.01,2013-01-08 07:13:00,
2013-01-08 02:18:00,30.7,20.7,30.21,WSW,248,1.6,1.6,66,0.00,,---,0.00,VWS V14.01,2013-01-08 07:18:00,
2013-01-08 02:23:00,30.7,20.7,30.21,WSW,248,2.5,2.5,66,0.00,,---,0.00,VWS V14.01,2013-01-08 07:23:00,
2013-01-08 02:28:00,30.9,21.3,30.21,SW,225,1.6,1.6,67,0.00,,---,0.00,VWS V14.01,2013-01-08 07:28:00,
2013-01-08 02:33:00,30.9,21.3,30.21,SW,225,3.1,3.1,67,0.00,,---,0.00,VWS V14.01,2013-01-08 07:33:00,
2013-01-08 02:38:00,31.1,21.4,30.21,WSW,248,2.5,2.5,67,0.00,,---,0.00,VWS V14.01,2013-01-08 07:38:00,
2013-01-08 02:43:00,31.3,22.0,30.21,WSW,248,2.7,3.6,68,0.00,,---,0.00,VWS V14.01,2013-01-08 07:43:00,
2013-01-08 02:48:00,31.3,22.0,30.21,WSW,248,2.5,2.5,68,0.00,,---,0.00,VWS V14.01,2013-01-08 07:48:00,
2013-01-08 02:53:00,31.3,22.0,30.21,WSW,248,2.7,2.7,68,0.00,,---,0.00,VWS V14.01,2013-01-08 07:53:00,
2013-01-08 02:58:00,31.6,22.3,30.21,SW,225,3.1,3.1,68,0.00,,---,0.00,VWS V14.01,2013-01-08 07:58:00,
2013-01-08 03:03:00,31.6,22.3,30.21,WSW,248,3.4,3.4,68,0.00,,---,0.00,VWS V14.01,2013-01-08 08:03:00,
2013-01-08 03:08:00,31.8,22.5,30.21,WSW,248,2.2,2.7,68,0.00,,---,0.00,VWS V14.01,2013-01-08 08:08:00,
2013-01-08 03:13:00,31.6,22.3,30.18,SW,225,2.2,2.2,68,0.00,,---,0.00,VWS V14.01,2013-01-08 08:13:00,
2013-01-08 03:18:00,31.5,21.8,30.18,WSW,248,2.5,2.5,67,0.00,,---,0.00,VWS V14.01,2013-01-08 08:18:00,
2013-01-08 03:23:00,31.3,21.6,30.18,WSW,248,2.9,2.9,67,0.00,,---,0.00,VWS V14.01,2013-01-08 08:23:00,
2013-01-08 03:28:00,31.1,21.4,30.18,WSW,248,2.7,2.7,67,0.00,,---,0.00,VWS V14.01,2013-01-08 08:28:00,
2013-01-08 03:33:00,31.3,22.0,30.18,WSW,248,2.0,2.0,68,0.00,,---,0.00,VWS V14.01,2013-01-08 08:33:00,
2013-01-08 03:38:00,31.3,22.0,30.18,WSW,248,2.5,2.5,68,0.00,,---,0.00,VWS V14.01,2013-01-08 08:38:00,
2013-01-08 03:43:00,31.3,22.0,30.18,WSW,248,2.0,2.9,68,0.00,,---,0.00,VWS V14.01,2013-01-08 08:43:00,
2013-01-08 03:48:00,31.3,22.0,30.18,West,270,3.1,3.1,68,0.00,,---,0.00,VWS V14.01,2013-01-08 08:48:00,
2013-01-08 03:53:00,31.3,22.0,30.18,SW,225,4.0,5.8,68,0.00,,---,0.00,VWS V14.01,2013-01-08 08:53:00,
2013-01-08 03:58:00,31.3,22.0,30.18,WSW,248,2.5,2.5,68,0.00,,---,0.00,VWS V14.01,2013-01-08 08:58:00,
2013-01-08 04:03:00,31.1,21.8,30.18,WSW,248,2.2,2.2,68,0.00,,---,0.00,VWS V14.01,2013-01-08 09:03:00,
2013-01-08 04:08:00,31.1,21.8,30.18,WSW,248,2.5,2.5,68,0.00,,---,0.00,VWS V14.01,2013-01-08 09:08:00,
2013-01-08 04:13:00,30.9,21.6,30.18,WSW,248,2.9,2.9,68,0.00,,---,0.00,VWS V14.01,2013-01-08 09:13:00,
2013-01-08 04:18:00,30.9,21.6,30.18,WSW,248,2.0,2.0,68,0.00,,---,0.00,VWS V14.01,2013-01-08 09:18:00,
2013-01-08 04:23:00,31.1,22.1,30.18,WSW,248,4.0,4.0,69,0.00,,---,0.00,VWS V14.01,2013-01-08 09:23:00,
2013-01-08 04:28:00,31.3,22.3,30.18,SW,225,2.7,2.7,69,0.00,,---,0.00,VWS V14.01,2013-01-08 09:28:00,
2013-01-08 04:33:00,31.3,22.0,30.18,WSW,248,2.7,2.7,68,0.00,,---,0.00,VWS V14.01,2013-01-08 09:33:00,
2013-01-08 04:38:00,31.1,21.8,30.18,WSW,248,2.5,2.5,68,0.00,,---,0.00,VWS V14.01,2013-01-08 09:38:00,
2013-01-08 04:43:00,31.1,21.8,30.18,WSW,248,3.1,3.1,68,0.00,,---,0.00,VWS V14.01,2013-01-08 09:43:00,
2013-01-08 04:48:00,31.3,22.0,30.18,WSW,248,3.8,3.8,68,0.00,,---,0.00,VWS V14.01,2013-01-08 09:48:00,
2013-01-08 04:53:00,31.3,22.0,30.18,WSW,248,2.5,2.5,68,0.00,,---,0.00,VWS V14.01,2013-01-08 09:53:00,
2013-01-08 04:58:00,31.1,21.8,30.18,SW,225,1.3,1.3,68,0.00,,---,0.00,VWS V14.01,2013-01-08 09:58:00,
2013-01-08 05:03:00,30.9,21.6,30.18,WSW,248,2.7,2.7,68,0.00,,---,0.00,VWS V14.01,2013-01-08 10:03:00,
2013-01-08 05:08:00,31.1,21.8,30.18,SW,225,1.6,1.6,68,0.00,,---,0.00,VWS V14.01,2013-01-08 10:08:00,
2013-01-08 05:13:00,30.9,21.6,30.18,SSW,202,0.0,0.0,68,0.00,,---,0.00,VWS V14.01,2013-01-08 10:13:00,
2013-01-08 05:18:00,30.9,21.6,30.18,SSW,202,0.0,0.0,68,0.00,,---,0.00,VWS V14.01,2013-01-08 10:18:00,
2013-01-08 05:23:00,30.6,21.3,30.18,WSW,248,1.6,1.6,68,0.00,,---,0.00,VWS V14.01,2013-01-08 10:23:00,
2013-01-08 05:28:00,30.6,21.3,30.18,WSW,248,3.4,3.4,68,0.00,,---,0.00,VWS V14.01,2013-01-08 10:28:00,
2013-01-08 05:33:00,30.7,21.8,30.18,WSW,248,2.0,2.0,69,0.00,,---,0.00,VWS V14.01,2013-01-08 10:33:00,
2013-01-08 05:38:00,30.6,21.3,30.18,WSW,248,0.9,2.0,68,0.00,,---,0.00,VWS V14.01,2013-01-08 10:38:00,
2013-01-08 05:43:00,30.6,21.3,30.18,WSW,248,1.3,2.7,68,0.00,,---,0.00,VWS V14.01,2013-01-08 10:43:00,
2013-01-08 05:48:00,30.6,21.3,30.18,WSW,248,2.7,3.6,68,0.00,,---,0.00,VWS V14.01,2013-01-08 10:48:00,
2013-01-08 05:53:00,30.7,21.4,30.18,SW,225,3.4,3.4,68,0.00,,---,0.00,VWS V14.01,2013-01-08 10:53:00,
2013-01-08 05:58:00,30.9,22.0,30.18,WSW,248,5.6,5.6,69,0.00,,---,0.00,VWS V14.01,2013-01-08 10:58:00,
2013-01-08 06:03:00,31.1,22.1,30.21,WSW,248,3.1,3.1,69,0.00,,---,0.00,VWS V14.01,2013-01-08 11:03:00,
2013-01-08 06:07:00,31.3,22.3,30.21,WNW,292,2.9,2.9,69,0.00,,---,0.00,VWS V14.01,2013-01-08 11:07:00,
2013-01-08 06:12:00,31.3,22.3,30.21,WSW,248,4.0,4.0,69,0.00,,---,0.00,VWS V14.01,2013-01-08 11:12:00,
2013-01-08 06:17:00,31.5,22.5,30.21,WSW,248,3.6,3.6,69,0.00,,---,0.00,VWS V14.01,2013-01-08 11:17:00,
2013-01-08 06:22:00,31.6,23.0,30.21,West,270,4.0,4.3,70,0.00,,---,0.00,VWS V14.01,2013-01-08 11:22:00,
2013-01-08 06:27:00,31.8,23.2,30.21,WSW,248,4.0,5.4,70,0.00,,---,0.00,VWS V14.01,2013-01-08 11:27:00,
2013-01-08 06:32:00,31.8,23.2,30.21,WSW,248,2.9,2.9,70,0.00,,---,0.00,VWS V14.01,2013-01-08 11:32:00,
2013-01-08 06:37:00,31.8,23.2,30.21,WSW,248,3.1,3.1,70,0.00,,---,0.00,VWS V14.01,2013-01-08 11:37:00,
2013-01-08 06:42:00,31.8,23.2,30.21,SW,225,2.5,6.0,70,0.00,,---,0.00,VWS V14.01,2013-01-08 11:42:00,
2013-01-08 06:47:00,31.8,23.2,30.21,WSW,248,1.6,3.1,70,0.00,,---,0.00,VWS V14.01,2013-01-08 11:47:00,
2013-01-08 06:52:00,31.6,23.0,30.21,SW,225,2.5,2.5,70,0.00,,---,0.00,VWS V14.01,2013-01-08 11:52:00,
2013-01-08 06:57:00,31.8,23.2,30.21,WSW,248,2.7,2.7,70,0.00,,---,0.00,VWS V14.01,2013-01-08 11:57:00,
2013-01-08 07:02:00,31.6,23.3,30.21,SW,225,1.6,1.6,71,0.00,,---,0.00,VWS V14.01,2013-01-08 12:02:00,
2013-01-08 07:07:00,31.6,23.3,30.21,SSW,202,3.4,3.4,71,0.00,,---,0.00,VWS V14.01,2013-01-08 12:07:00,
2013-01-08 07:12:00,31.8,23.5,30.21,SW,225,1.6,3.1,71,0.00,,---,0.00,VWS V14.01,2013-01-08 12:12:00,
2013-01-08 07:17:00,31.8,23.5,30.21,WSW,248,2.9,2.9,71,0.00,,---,0.00,VWS V14.01,2013-01-08 12:17:00,
2013-01-08 07:22:00,32.0,24.0,30.21,WSW,248,2.5,2.5,72,0.00,,---,0.00,VWS V14.01,2013-01-08 12:22:00,
2013-01-08 07:27:00,32.2,24.5,30.21,WSW,248,2.9,2.9,73,0.00,,---,0.00,VWS V14.01,2013-01-08 12:27:00,
2013-01-08 07:32:00,32.4,24.7,30.21,SW,225,2.0,2.9,73,0.00,,---,0.00,VWS V14.01,2013-01-08 12:32:00,
2013-01-08 07:37:00,32.7,25.4,30.21,WSW,248,5.6,6.0,74,0.00,,---,0.00,VWS V14.01,2013-01-08 12:37:00,
2013-01-08 07:42:00,32.7,25.7,30.21,SSW,202,4.3,4.3,75,0.00,,---,0.00,VWS V14.01,2013-01-08 12:42:00,
2013-01-08 07:47:00,33.1,26.4,30.21,WSW,248,2.0,6.5,76,0.00,,---,0.00,VWS V14.01,2013-01-08 12:47:00,
2013-01-08 07:52:00,33.4,26.7,30.21,WSW,248,4.0,4.0,76,0.00,,---,0.00,VWS V14.01,2013-01-08 12:52:00,
2013-01-08 07:57:00,33.8,27.0,30.21,West,270,6.9,6.9,76,0.00,,---,0.00,VWS V14.01,2013-01-08 12:57:00,
2013-01-08 08:02:00,34.0,27.2,30.21,SW,225,2.5,4.3,76,0.00,,---,0.00,VWS V14.01,2013-01-08 13:02:00,
2013-01-08 08:07:00,34.3,27.6,30.21,WSW,248,3.8,5.4,76,0.00,,---,0.00,VWS V14.01,2013-01-08 13:07:00,
2013-01-08 08:12:00,34.7,27.9,30.21,WSW,248,6.0,6.0,76,0.00,,---,0.00,VWS V14.01,2013-01-08 13:12:00,
2013-01-08 08:17:00,35.1,28.3,30.24,WSW,248,2.9,2.9,76,0.00,,---,0.00,VWS V14.01,2013-01-08 13:17:00,
2013-01-08 08:22:00,35.2,28.5,30.24,West,270,3.4,5.8,76,0.00,,---,0.00,VWS V14.01,2013-01-08 13:22:00,
2013-01-08 08:27:00,35.4,28.6,30.24,WNW,292,5.8,5.8,76,0.00,,---,0.00,VWS V14.01,2013-01-08 13:27:00,
2013-01-08 08:32:00,35.6,28.5,30.24,West,270,3.4,5.6,75,0.00,,---,0.00,VWS V14.01,2013-01-08 13:32:00,
2013-01-08 08:37:00,35.8,28.6,30.24,WNW,292,4.0,4.0,75,0.00,,---,0.00,VWS V14.01,2013-01-08 13:37:00,
2013-01-08 08:42:00,36.0,28.5,30.24,West,270,3.4,3.6,74,0.00,,---,0.00,VWS V14.01,2013-01-08 13:42:00,
2013-01-08 08:47:00,36.5,29.0,30.24,West,270,2.5,4.0,74,0.00,,---,0.00,VWS V14.01,2013-01-08 13:47:00,
2013-01-08 08:52:00,37.0,29.2,30.24,WNW,292,3.4,5.6,73,0.00,,---,0.00,VWS V14.01,2013-01-08 13:52:00,
2013-01-08 08:57:00,37.8,29.9,30.24,WSW,248,5.4,5.8,73,0.00,,---,0.00,VWS V14.01,2013-01-08 13:57:00,
2013-01-08 09:02:00,38.3,30.1,30.24,West,270,5.6,5.6,72,0.00,,---,0.00,VWS V14.01,2013-01-08 14:02:00,
2013-01-08 09:07:00,38.5,29.9,30.24,West,270,6.0,6.0,71,0.00,,---,0.00,VWS V14.01,2013-01-08 14:07:00,
2013-01-08 09:12:00,38.8,29.9,30.24,WNW,292,4.3,4.9,70,0.00,,---,0.00,VWS V14.01,2013-01-08 14:12:00,
2013-01-08 09:17:00,39.0,30.1,30.24,West,270,3.8,3.8,70,0.00,,---,0.00,VWS V14.01,2013-01-08 14:17:00,
2013-01-08 09:22:00,39.9,30.6,30.24,WSW,248,6.0,6.5,69,0.00,,---,0.00,VWS V14.01,2013-01-08 14:22:00,
2013-01-08 09:27:00,40.8,31.1,30.24,WNW,292,5.6,5.6,68,0.00,,---,0.00,VWS V14.01,2013-01-08 14:27:00,
2013-01-08 09:32:00,41.7,31.2,30.24,WNW,292,5.8,5.8,66,0.00,,---,0.00,VWS V14.01,2013-01-08 14:32:00,
2013-01-08 09:37:00,42.6,32.1,30.24,WNW,292,2.5,5.4,66,0.00,,---,0.00,VWS V14.01,2013-01-08 14:37:00,
2013-01-08 09:42:00,43.7,32.3,30.24,WNW,292,2.7,2.7,64,0.00,,---,0.00,VWS V14.01,2013-01-08 14:42:00,
2013-01-08 09:47:00,44.6,32.0,30.24,West,270,2.5,3.8,61,0.00,,---,0.00,VWS V14.01,2013-01-08 14:47:00,
2013-01-08 09:52:00,45.3,32.3,30.24,WSW,248,4.0,4.0,60,0.00,,---,0.00,VWS V14.01,2013-01-08 14:52:00,
2013-01-08 09:57:00,46.6,33.0,30.24,WSW,248,3.6,3.6,59,0.00,,---,0.00,VWS V14.01,2013-01-08 14:57:00,
2013-01-08 10:02:00,46.8,31.9,30.24,WSW,248,6.5,6.5,56,0.00,,---,0.00,VWS V14.01,2013-01-08 15:02:00,
2013-01-08 10:07:00,47.5,33.0,30.24,West,270,2.2,2.5,57,0.00,,---,0.00,VWS V14.01,2013-01-08 15:07:00,
2013-01-08 10:12:00,48.4,33.0,30.24,WSW,248,7.2,7.2,55,0.00,,---,0.00,VWS V14.01,2013-01-08 15:12:00,
2013-01-08 10:17:00,48.7,32.8,30.24,WSW,248,5.4,6.3,54,0.00,,---,0.00,VWS V14.01,2013-01-08 15:17:00,
2013-01-08 10:22:00,49.1,32.2,30.24,West,270,4.3,4.3,52,0.00,,---,0.00,VWS V14.01,2013-01-08 15:22:00,
2013-01-08 10:27:00,48.7,30.5,30.24,West,270,9.6,9.6,49,0.00,,---,0.00,VWS V14.01,2013-01-08 15:27:00,
2013-01-08 10:32:00,48.9,30.6,30.24,West,270,7.8,7.8,49,0.00,,---,0.00,VWS V14.01,2013-01-08 15:32:00,
2013-01-08 10:37:00,49.5,31.6,30.24,West,270,8.5,8.5,50,0.00,,---,0.00,VWS V14.01,2013-01-08 15:37:00,
2013-01-08 10:42:00,49.5,31.1,30.24,WSW,248,10.1,10.1,49,0.00,,---,0.00,VWS V14.01,2013-01-08 15:42:00,
2013-01-08 10:47:00,49.8,31.9,30.21,WSW,248,3.4,6.3,50,0.00,,---,0.00,VWS V14.01,2013-01-08 15:47:00,
2013-01-08 10:52:00,50.2,30.8,30.21,NW,315,3.8,5.8,47,0.00,,---,0.00,VWS V14.01,2013-01-08 15:52:00,
2013-01-08 10:57:00,50.4,31.4,30.21,WSW,248,3.4,3.4,48,0.00,,---,0.00,VWS V14.01,2013-01-08 15:57:00,
2013-01-08 11:02:00,50.5,30.5,30.21,NNW,338,6.7,8.5,46,0.00,,---,0.00,VWS V14.01,2013-01-08 16:02:00,
2013-01-08 11:07:00,50.7,31.2,30.21,WNW,292,5.6,5.6,47,0.00,,---,0.00,VWS V14.01,2013-01-08 16:07:00,
2013-01-08 11:12:00,51.1,31.6,30.21,West,270,3.8,5.8,47,0.00,,---,0.00,VWS V14.01,2013-01-08 16:12:00,
2013-01-08 11:17:00,51.4,32.4,30.18,West,270,2.9,6.5,48,0.00,,---,0.00,VWS V14.01,2013-01-08 16:17:00,
2013-01-08 11:22:00,50.9,30.9,30.18,WSW,248,5.6,9.4,46,0.00,,---,0.00,VWS V14.01,2013-01-08 16:22:00,
2013-01-08 11:27:00,50.9,31.9,30.18,WSW,248,3.4,3.4,48,0.00,,---,0.00,VWS V14.01,2013-01-08 16:27:00,
2013-01-08 11:32:00,51.8,32.2,30.18,NNW,338,6.5,6.5,47,0.00,,---,0.00,VWS V14.01,2013-01-08 16:32:00,
2013-01-08 11:37:00,51.6,32.1,30.18,WSW,248,5.8,7.2,47,0.00,,---,0.00,VWS V14.01,2013-01-08 16:37:00,
2013-01-08 11:42:00,51.8,31.7,30.18,WSW,248,5.6,5.6,46,0.00,,---,0.00,VWS V14.01,2013-01-08 16:42:00,
2013-01-08 11:47:00,51.8,31.1,30.18,West,270,6.3,8.5,45,0.00,,---,0.00,VWS V14.01,2013-01-08 16:47:00,
2013-01-08 11:52:00,52.3,31.1,30.18,WSW,248,7.8,7.8,44,0.00,,---,0.00,VWS V14.01,2013-01-08 16:52:00,
2013-01-08 11:57:00,52.0,31.3,30.18,WSW,248,7.2,7.2,45,0.00,,---,0.00,VWS V14.01,2013-01-08 16:57:00,
2013-01-08 12:02:00,51.6,31.5,30.18,WSW,248,7.6,7.6,46,0.00,,---,0.00,VWS V14.01,2013-01-08 17:02:00,
2013-01-08 12:07:00,51.4,31.4,30.18,SSW,202,5.4,8.5,46,0.00,,---,0.00,VWS V14.01,2013-01-08 17:07:00,
2013-01-08 12:12:00,51.4,31.4,30.18,WSW,248,5.8,5.8,46,0.00,,---,0.00,VWS V14.01,2013-01-08 17:12:00,
2013-01-08 12:17:00,51.4,31.4,30.18,West,270,3.4,4.3,46,0.00,,---,0.00,VWS V14.01,2013-01-08 17:17:00,
2013-01-08 12:22:00,51.8,31.1,30.18,West,270,8.1,8.1,45,0.00,,---,0.00,VWS V14.01,2013-01-08 17:22:00,
2013-01-08 12:27:00,52.0,31.3,30.18,WNW,292,9.6,9.6,45,0.00,,---,0.00,VWS V14.01,2013-01-08 17:27:00,
2013-01-08 12:32:00,52.0,31.3,30.15,WSW,248,6.5,6.5,45,0.00,,---,0.00,VWS V14.01,2013-01-08 17:32:00,
2013-01-08 12:37:00,52.0,30.2,30.15,SSW,202,6.0,6.0,43,0.00,,---,0.00,VWS V14.01,2013-01-08 17:37:00,
2013-01-08 12:42:00,52.0,31.3,30.15,SW,225,7.6,7.6,45,0.00,,---,0.00,VWS V14.01,2013-01-08 17:42:00,
2013-01-08 12:47:00,51.6,31.0,30.15,WSW,248,2.9,2.9,45,0.00,,---,0.00,VWS V14.01,2013-01-08 17:47:00,
2013-01-08 12:52:00,51.6,31.0,30.15,WSW,248,6.3,7.2,45,0.00,,---,0.00,VWS V14.01,2013-01-08 17:52:00,
2013-01-08 12:57:00,51.6,31.5,30.15,West,270,5.4,5.4,46,0.00,,---,0.00,VWS V14.01,2013-01-08 17:57:00,
2013-01-08 13:02:00,51.6,31.5,30.15,WSW,248,5.8,5.8,46,0.00,,---,0.00,VWS V14.01,2013-01-08 18:02:00,
2013-01-08 13:07:00,52.0,31.9,30.15,WNW,292,6.0,6.0,46,0.00,,---,0.00,VWS V14.01,2013-01-08 18:07:00,
2013-01-08 13:12:00,52.0,31.3,30.15,West,270,8.7,8.7,45,0.00,,---,0.00,VWS V14.01,2013-01-08 18:12:00,
2013-01-08 13:17:00,52.0,31.3,30.15,West,270,1.3,1.3,45,0.00,,---,0.00,VWS V14.01,2013-01-08 18:17:00,
2013-01-08 13:22:00,52.2,31.5,30.15,SSW,202,4.7,4.7,45,0.00,,---,0.00,VWS V14.01,2013-01-08 18:22:00,
2013-01-08 13:27:00,52.2,31.5,30.15,West,270,6.0,6.0,45,0.00,,---,0.00,VWS V14.01,2013-01-08 18:27:00,
2013-01-08 13:32:00,52.3,31.6,30.15,WSW,248,3.6,6.3,45,0.00,,---,0.00,VWS V14.01,2013-01-08 18:32:00,
2013-01-08 13:37:00,52.9,32.1,30.15,West,270,4.0,4.0,45,0.00,,---,0.00,VWS V14.01,2013-01-08 18:37:00,
2013-01-08 13:42:00,52.5,31.2,30.15,West,270,5.4,5.4,44,0.00,,---,0.00,VWS V14.01,2013-01-08 18:42:00,
2013-01-08 13:47:00,52.3,30.5,30.15,WNW,292,5.4,5.4,43,0.00,,---,0.00,VWS V14.01,2013-01-08 18:47:00,
2013-01-08 13:52:00,52.3,31.1,30.15,WSW,248,4.9,4.9,44,0.00,,---,0.00,VWS V14.01,2013-01-08 18:52:00,
2013-01-08 13:57:00,52.3,31.1,30.15,WNW,292,6.0,6.0,44,0.00,,---,0.00,VWS V14.01,2013-01-08 18:57:00,
2013-01-08 14:02:00,52.3,31.1,30.15,WNW,292,10.3,10.3,44,0.00,,---,0.00,VWS V14.01,2013-01-08 19:02:00,
2013-01-08 14:07:00,52.3,30.5,30.15,West,270,6.0,6.0,43,0.00,,---,0.00,VWS V14.01,2013-01-08 19:07:00,
2013-01-08 14:12:00,52.2,29.8,30.15,WSW,248,3.6,3.6,42,0.00,,---,0.00,VWS V14.01,2013-01-08 19:12:00,
2013-01-08 14:17:00,52.3,31.1,30.15,WNW,292,3.1,7.4,44,0.00,,---,0.00,VWS V14.01,2013-01-08 19:17:00,
2013-01-08 14:22:00,52.2,30.4,30.15,WSW,248,12.5,12.5,43,0.00,,---,0.00,VWS V14.01,2013-01-08 19:22:00,
2013-01-08 14:27:00,52.0,30.2,30.15,WSW,248,8.1,8.1,43,0.00,,---,0.00,VWS V14.01,2013-01-08 19:27:00,
2013-01-08 14:32:00,51.8,30.6,30.15,WNW,292,3.4,4.7,44,0.00,,---,0.00,VWS V14.01,2013-01-08 19:32:00,
2013-01-08 14:37:00,51.6,30.4,30.15,NNW,338,3.6,3.6,44,0.00,,---,0.00,VWS V14.01,2013-01-08 19:37:00,
2013-01-08 14:42:00,51.4,30.3,30.15,WNW,292,4.9,4.9,44,0.00,,---,0.00,VWS V14.01,2013-01-08 19:42:00,
2013-01-08 14:47:00,51.1,30.5,30.15,NW,315,4.0,5.6,45,0.00,,---,0.00,VWS V14.01,2013-01-08 19:47:00,
2013-01-08 14:52:00,50.9,30.3,30.15,West,270,5.6,5.6,45,0.00,,---,0.00,VWS V14.01,2013-01-08 19:52:00,
2013-01-08 14:57:00,51.4,30.3,30.15,NNW,338,4.3,5.4,44,0.00,,---,0.00,VWS V14.01,2013-01-08 19:57:00,
2013-01-08 15:02:00,51.4,30.3,30.15,NW,315,2.7,4.3,44,0.00,,---,0.00,VWS V14.01,2013-01-08 20:02:00,
2013-01-08 15:07:00,51.6,30.4,30.15,NNW,338,8.7,8.7,44,0.00,,---,0.00,VWS V14.01,2013-01-08 20:07:00,
2013-01-08 15:12:00,51.6,30.4,30.15,NW,315,3.4,3.4,44,0.00,,---,0.00,VWS V14.01,2013-01-08 20:12:00,
2013-01-08 15:17:00,51.6,30.4,30.15,WNW,292,5.8,8.7,44,0.00,,---,0.00,VWS V14.01,2013-01-08 20:17:00,
2013-01-08 15:22:00,51.4,30.8,30.15,WNW,292,6.5,6.5,45,0.00,,---,0.00,VWS V14.01,2013-01-08 20:22:00,
2013-01-08 15:27:00,51.4,30.3,30.15,WNW,292,6.5,6.5,44,0.00,,---,0.00,VWS V14.01,2013-01-08 20:27:00,
2013-01-08 15:32:00,51.3,30.1,30.15,WSW,248,5.4,7.4,44,0.00,,---,0.00,VWS V14.01,2013-01-08 20:32:00,
2013-01-08 15:37:00,51.3,30.7,30.15,WSW,248,6.0,6.0,45,0.00,,---,0.00,VWS V14.01,2013-01-08 20:37:00,
2013-01-08 15:42:00,51.1,30.0,30.15,West,270,3.6,5.8,44,0.00,,---,0.00,VWS V14.01,2013-01-08 20:42:00,
2013-01-08 15:47:00,51.1,30.5,30.15,WNW,292,2.0,2.0,45,0.00,,---,0.00,VWS V14.01,2013-01-08 20:47:00,
2013-01-08 15:52:00,50.7,29.6,30.15,NW,315,6.5,6.5,44,0.00,,---,0.00,VWS V14.01,2013-01-08 20:52:00,
2013-01-08 15:57:00,50.4,29.8,30.15,WNW,292,2.7,5.4,45,0.00,,---,0.00,VWS V14.01,2013-01-08 20:57:00,
2013-01-08 16:02:00,50.0,30.0,30.15,WNW,292,3.1,3.1,46,0.00,,---,0.00,VWS V14.01,2013-01-08 21:02:00,
2013-01-08 16:07:00,49.6,29.7,30.15,WNW,292,3.8,4.0,46,0.00,,---,0.00,VWS V14.01,2013-01-08 21:07:00,
2013-01-08 16:12:00,49.3,29.4,30.15,WNW,292,4.7,5.8,46,0.00,,---,0.00,VWS V14.01,2013-01-08 21:12:00,
2013-01-08 16:17:00,49.1,29.8,30.15,WNW,292,2.9,2.9,47,0.00,,---,0.00,VWS V14.01,2013-01-08 21:17:00,
2013-01-08 16:22:00,48.7,29.4,30.15,West,270,7.2,7.2,47,0.00,,---,0.00,VWS V14.01,2013-01-08 21:22:00,
2013-01-08 16:27:00,48.6,29.3,30.15,WNW,292,2.5,3.6,47,0.00,,---,0.00,VWS V14.01,2013-01-08 21:27:00,
2013-01-08 16:32:00,48.4,29.1,30.15,WNW,292,2.5,4.0,47,0.00,,---,0.00,VWS V14.01,2013-01-08 21:32:00,
2013-01-08 16:37:00,48.0,29.3,30.15,NW,315,2.5,3.4,48,0.00,,---,0.00,VWS V14.01,2013-01-08 21:37:00,
2013-01-08 16:42:00,47.7,29.0,30.15,West,270,2.0,2.0,48,0.00,,---,0.00,VWS V14.01,2013-01-08 21:42:00,
2013-01-08 16:47:00,47.3,28.6,30.15,WNW,292,3.1,3.1,48,0.00,,---,0.00,VWS V14.01,2013-01-08 21:47:00,
2013-01-08 16:52:00,46.9,28.8,30.15,WNW,292,1.3,2.0,49,0.00,,---,0.00,VWS V14.01,2013-01-08 21:52:00,
2013-01-08 16:57:00,46.8,28.6,30.15,WNW,292,1.6,1.6,49,0.00,,---,0.00,VWS V14.01,2013-01-08 21:57:00,
2013-01-08 17:02:00,46.4,28.3,30.18,WSW,248,2.5,2.5,49,0.00,,---,0.00,VWS V14.01,2013-01-08 22:02:00,
2013-01-08 17:07:00,46.2,28.6,30.18,West,270,0.0,1.3,50,0.00,,---,0.00,VWS V14.01,2013-01-08 22:07:00,
2013-01-08 17:12:00,45.9,28.3,30.18,West,270,0.0,0.0,50,0.00,,---,0.00,VWS V14.01,2013-01-08 22:12:00,
2013-01-08 17:17:00,45.3,27.8,30.18,WSW,248,0.0,0.0,50,0.00,,---,0.00,VWS V14.01,2013-01-08 22:17:00,
2013-01-08 17:22:00,44.6,27.1,30.18,WSW,248,0.0,0.0,50,0.00,,---,0.00,VWS V14.01,2013-01-08 22:22:00,
2013-01-08 17:27:00,44.1,27.1,30.18,WSW,248,0.0,0.0,51,0.00,,---,0.00,VWS V14.01,2013-01-08 22:27:00,
2013-01-08 17:32:00,43.3,26.9,30.18,WSW,248,0.0,0.0,52,0.00,,---,0.00,VWS V14.01,2013-01-08 22:32:00,
2013-01-08 17:37:00,43.0,26.6,30.18,WSW,248,0.0,0.0,52,0.00,,---,0.00,VWS V14.01,2013-01-08 22:37:00,
2013-01-08 17:42:00,42.6,26.7,30.18,WSW,248,0.0,0.0,53,0.00,,---,0.00,VWS V14.01,2013-01-08 22:42:00,
2013-01-08 17:47:00,42.3,26.4,30.18,WSW,248,0.0,0.0,53,0.00,,---,0.00,VWS V14.01,2013-01-08 22:47:00,
2013-01-08 17:52:00,42.1,26.6,30.18,WSW,248,0.0,0.0,54,0.00,,---,0.00,VWS V14.01,2013-01-08 22:52:00,
2013-01-08 17:57:00,41.9,26.9,30.18,SW,225,0.0,0.0,55,0.00,,---,0.00,VWS V14.01,2013-01-08 22:57:00,
2013-01-08 18:02:00,41.9,26.9,30.18,SW,225,0.0,0.0,55,0.00,,---,0.00,VWS V14.01,2013-01-08 23:02:00,
2013-01-08 18:07:00,41.7,26.8,30.18,SW,225,0.0,0.0,55,0.00,,---,0.00,VWS V14.01,2013-01-08 23:07:00,
2013-01-08 18:12:00,41.5,26.6,30.18,SW,225,0.0,0.0,55,0.00,,---,0.00,VWS V14.01,2013-01-08 23:12:00,
2013-01-08 18:17:00,41.4,26.9,30.18,WSW,248,0.0,0.0,56,0.00,,---,0.00,VWS V14.01,2013-01-08 23:17:00,
2013-01-08 18:22:00,41.0,26.5,30.18,WSW,248,0.0,0.0,56,0.00,,---,0.00,VWS V14.01,2013-01-08 23:22:00,
2013-01-08 18:27:00,40.8,26.8,30.18,WSW,248,0.0,0.0,57,0.00,,---,0.00,VWS V14.01,2013-01-08 23:27:00,
2013-01-08 18:32:00,41.0,26.5,30.18,WSW,248,0.0,0.0,56,0.00,,---,0.00,VWS V14.01,2013-01-08 23:32:00,
2013-01-08 18:37:00,40.6,26.6,30.18,WSW,248,0.0,0.0,57,0.00,,---,0.00,VWS V14.01,2013-01-08 23:37:00,
2013-01-08 18:42:00,40.5,26.4,30.18,WSW,248,0.0,0.0,57,0.00,,---,0.00,VWS V14.01,2013-01-08 23:42:00,
2013-01-08 18:47:00,40.3,26.3,30.18,WSW,248,1.1,1.6,57,0.00,,---,0.00,VWS V14.01,2013-01-08 23:47:00,
2013-01-08 18:52:00,39.9,26.4,30.18,WSW,248,0.0,0.0,58,0.00,,---,0.00,VWS V14.01,2013-01-08 23:52:00,
2013-01-08 18:57:00,39.9,26.4,30.18,WSW,248,2.0,2.0,58,0.00,,---,0.00,VWS V14.01,2013-01-08 23:57:00,
2013-01-08 19:02:00,39.9,26.8,30.18,SW,225,1.6,2.0,59,0.00,,---,0.00,VWS V14.01,2013-01-09 00:02:00,
2013-01-08 19:07:00,40.1,26.9,30.18,WSW,248,2.5,2.5,59,0.00,,---,0.00,VWS V14.01,2013-01-09 00:07:00,
2013-01-08 19:12:00,40.3,27.1,30.18,WSW,248,3.4,3.4,59,0.00,,---,0.00,VWS V14.01,2013-01-09 00:12:00,
2013-01-08 19:17:00,40.5,27.7,30.18,WSW,248,2.9,3.4,60,0.00,,---,0.00,VWS V14.01,2013-01-09 00:17:00,
2013-01-08 19:22:00,40.6,27.9,30.18,WSW,248,3.4,3.4,60,0.00,,---,0.00,VWS V14.01,2013-01-09 00:22:00,
2013-01-08 19:27:00,40.6,27.9,30.18,WSW,248,2.5,2.5,60,0.00,,---,0.00,VWS V14.01,2013-01-09 00:27:00,
2013-01-08 19:32:00,40.6,27.9,30.18,WSW,248,2.7,2.7,60,0.00,,---,0.00,VWS V14.01,2013-01-09 00:32:00,
2013-01-08 19:37:00,40.5,27.7,30.18,West,270,2.5,2.5,60,0.00,,---,0.00,VWS V14.01,2013-01-09 00:37:00,
2013-01-08 19:42:00,40.3,27.5,30.18,WSW,248,2.5,2.5,60,0.00,,---,0.00,VWS V14.01,2013-01-09 00:42:00,
2013-01-08 19:47:00,40.3,27.5,30.18,WSW,248,3.1,3.8,60,0.00,,---,0.00,VWS V14.01,2013-01-09 00:47:00,
2013-01-08 19:52:00,40.3,27.5,30.18,WSW,248,2.5,2.5,60,0.00,,---,0.00,VWS V14.01,2013-01-09 00:52:00,
2013-01-08 19:57:00,40.3,27.5,30.18,WSW,248,2.9,2.9,60,0.00,,---,0.00,VWS V14.01,2013-01-09 00:57:00,
2013-01-08 20:02:00,40.3,27.9,30.18,SW,225,2.2,2.9,61,0.00,,---,0.00,VWS V14.01,2013-01-09 01:02:00,
2013-01-08 20:07:00,40.3,27.9,30.18,WSW,248,2.7,2.7,61,0.00,,---,0.00,VWS V14.01,2013-01-09 01:07:00,
2013-01-08 20:12:00,40.1,27.8,30.18,West,270,3.1,3.1,61,0.00,,---,0.00,VWS V14.01,2013-01-09 01:12:00,
2013-01-08 20:17:00,40.3,27.9,30.18,West,270,2.7,2.7,61,0.00,,---,0.00,VWS V14.01,2013-01-09 01:17:00,
2013-01-08 20:22:00,40.1,27.8,30.18,WSW,248,1.6,1.6,61,0.00,,---,0.00,VWS V14.01,2013-01-09 01:22:00,
2013-01-08 20:27:00,40.1,27.8,30.18,West,270,1.1,1.1,61,0.00,,---,0.00,VWS V14.01,2013-01-09 01:27:00,
2013-01-08 20:32:00,39.9,28.0,30.18,WSW,248,0.0,0.0,62,0.00,,---,0.00,VWS V14.01,2013-01-09 01:32:00,
2013-01-08 20:37:00,39.7,27.8,30.18,West,270,2.0,2.0,62,0.00,,---,0.00,VWS V14.01,2013-01-09 01:37:00,
2013-01-08 20:42:00,39.7,27.8,30.18,WSW,248,2.5,2.7,62,0.00,,---,0.00,VWS V14.01,2013-01-09 01:42:00,
2013-01-08 20:47:00,39.7,27.8,30.18,WSW,248,2.5,2.5,62,0.00,,---,0.00,VWS V14.01,2013-01-09 01:47:00,
2013-01-08 20:52:00,39.9,28.0,30.18,WSW,248,2.2,2.2,62,0.00,,---,0.00,VWS V14.01,2013-01-09 01:52:00,
2013-01-08 20:57:00,39.7,27.8,30.18,WSW,248,2.5,2.5,62,0.00,,---,0.00,VWS V14.01,2013-01-09 01:57:00,
2013-01-08 21:02:00,39.7,27.8,30.18,West,270,2.5,2.5,62,0.00,,---,0.00,VWS V14.01,2013-01-09 02:02:00,
2013-01-08 21:07:00,39.4,28.2,30.18,NNW,338,0.9,0.9,64,0.00,,---,0.00,VWS V14.01,2013-01-09 02:07:00,
2013-01-08 21:12:00,39.2,27.7,30.15,WSW,248,2.0,2.0,63,0.00,,---,0.00,VWS V14.01,2013-01-09 02:12:00,
2013-01-08 21:17:00,39.0,27.5,30.15,WSW,248,1.1,1.1,63,0.00,,---,0.00,VWS V14.01,2013-01-09 02:17:00,
2013-01-08 21:22:00,38.7,27.5,30.15,WSW,248,0.0,0.0,64,0.00,,---,0.00,VWS V14.01,2013-01-09 02:22:00,
2013-01-08 21:27:00,38.5,27.4,30.15,WSW,248,0.0,0.0,64,0.00,,---,0.00,VWS V14.01,2013-01-09 02:27:00,
2013-01-08 21:32:00,38.1,27.0,30.15,WSW,248,0.0,0.0,64,0.00,,---,0.00,VWS V14.01,2013-01-09 02:32:00,
2013-01-08 21:37:00,37.9,27.6,30.15,NE,45,0.0,0.0,66,0.00,,---,0.00,VWS V14.01,2013-01-09 02:37:00,
2013-01-08 21:42:00,37.6,26.9,30.15,ENE,68,0.0,0.0,65,0.00,,---,0.00,VWS V14.01,2013-01-09 02:42:00,
2013-01-08 21:47:00,37.2,26.5,30.15,SSW,202,0.0,0.0,65,0.00,,---,0.00,VWS V14.01,2013-01-09 02:47:00,
2013-01-08 21:52:00,37.2,26.5,30.15,SW,225,2.0,2.2,65,0.00,,---,0.00,VWS V14.01,2013-01-09 02:52:00,
2013-01-08 21:57:00,37.0,26.8,30.15,SW,225,1.1,1.1,66,0.00,,---,0.00,VWS V14.01,2013-01-09 02:57:00,
2013-01-08 22:02:00,37.0,26.8,30.15,WSW,248,0.0,0.0,66,0.00,,---,0.00,VWS V14.01,2013-01-09 03:02:00,
2013-01-08 22:07:00,36.9,26.6,30.15,WSW,248,0.0,0.0,66,0.00,,---,0.00,VWS V14.01,2013-01-09 03:07:00,
2013-01-08 22:12:00,36.7,26.4,30.15,SSW,202,1.6,1.6,66,0.00,,---,0.00,VWS V14.01,2013-01-09 03:12:00,
2013-01-08 22:17:00,36.5,26.2,30.15,WSW,248,0.0,0.0,66,0.00,,---,0.00,VWS V14.01,2013-01-09 03:17:00,
2013-01-08 22:22:00,36.7,26.8,30.18,WSW,248,0.0,0.0,67,0.00,,---,0.00,VWS V14.01,2013-01-09 03:22:00,
2013-01-08 22:27:00,36.9,26.9,30.18,WSW,248,0.0,0.0,67,0.00,,---,0.00,VWS V14.01,2013-01-09 03:27:00,
2013-01-08 22:32:00,37.2,27.6,30.18,WSW,248,2.7,2.7,68,0.00,,---,0.00,VWS V14.01,2013-01-09 03:32:00,
2013-01-08 22:37:00,37.6,28.0,30.18,WSW,248,2.9,2.9,68,0.00,,---,0.00,VWS V14.01,2013-01-09 03:37:00,
2013-01-08 22:42:00,37.8,28.2,30.18,WSW,248,2.5,2.7,68,0.00,,---,0.00,VWS V14.01,2013-01-09 03:42:00,
2013-01-08 22:47:00,37.9,28.3,30.18,WSW,248,1.6,1.6,68,0.00,,---,0.00,VWS V14.01,2013-01-09 03:47:00,
2013-01-08 22:52:00,38.1,28.5,30.18,West,270,2.0,2.0,68,0.00,,---,0.00,VWS V14.01,2013-01-09 03:52:00,
2013-01-08 22:57:00,38.1,28.5,30.18,WSW,248,1.6,1.6,68,0.00,,---,0.00,VWS V14.01,2013-01-09 03:57:00,
2013-01-08 23:02:00,38.1,28.1,30.18,West,270,2.7,2.7,67,0.00,,---,0.00,VWS V14.01,2013-01-09 04:02:00,
2013-01-08 23:07:00,38.5,28.5,30.18,WSW,248,2.5,2.5,67,0.00,,---,0.00,VWS V14.01,2013-01-09 04:07:00,
2013-01-08 23:12:00,38.8,28.8,30.18,West,270,0.0,0.0,67,0.00,,---,0.00,VWS V14.01,2013-01-09 04:12:00,
2013-01-08 23:17:00,39.2,29.2,30.18,WSW,248,0.0,0.0,67,0.00,,---,0.00,VWS V14.01,2013-01-09 04:17:00,
2013-01-08 23:22:00,39.4,29.4,30.18,NW,315,1.3,1.3,67,0.00,,---,0.00,VWS V14.01,2013-01-09 04:22:00,
2013-01-08 23:27:00,39.4,29.4,30.18,West,270,0.0,0.0,67,0.00,,---,0.00,VWS V14.01,2013-01-09 04:27:00,
2013-01-08 23:32:00,39.7,29.7,30.18,WSW,248,1.3,1.3,67,0.00,,---,0.00,VWS V14.01,2013-01-09 04:32:00,
2013-01-08 23:37:00,40.1,29.7,30.18,WNW,292,1.1,1.1,66,0.00,,---,0.00,VWS V14.01,2013-01-09 04:37:00,
2013-01-08 23:42:00,40.3,29.8,30.18,WSW,248,2.0,2.0,66,0.00,,---,0.00,VWS V14.01,2013-01-09 04:42:00,
2013-01-08 23:47:00,40.5,30.0,30.18,WSW,248,0.9,1.1,66,0.00,,---,0.00,VWS V14.01,2013-01-09 04:47:00,
2013-01-08 23:52:00,40.5,30.0,30.18,WSW,248,2.5,2.5,66,0.00,,---,0.00,VWS V14.01,2013-01-09 04:52:00,
2013-01-08 23:57:00,40.5,30.0,30.18,WNW,292,0.0,0.0,66,0.00,,---,0.00,VWS V14.01,2013-01-09 04:57:00,